Volver al catálogo

COSMOS 886 DEB

ActivoLEO
NORAD 18907·DEBRIS·🇷🇺 Russia

Lanzado Dec 27, 1976 desde Baikonur Cosmodrome

Loading…

Próximos Pases (próximas 24 horas)

TLE

ActualizadoSource: Space-Track

Época: Sep 14, 2026, 04:19 UTC

1 18907U 76126BY  26257.18010841  .00001750  00000-0  41752-3 0  9997
2 18907  65.8140 168.3446 0865908 346.8004  11.1603 13.31640556859631

Sigue COSMOS 886 DEB en tiempo real con AllMySat

Download on the App Store